Location: Stara Lesna
(49.1528°N, 20.2911°E)
Time: 03:02:27
(UTC+02:00)

MSX - Pass Details

Date: 13 July 2020
Orbit: 894 x 906 km, 98.8° (Epoch: 11 August)

Event Time Altitude Azimuth Distance (km) Brightness Sun altitude
Rises 03:55:12 0° 17° (NNE) 3,522 8.2 -7.4°
Reaches altitude 10° 03:57:41 10° 22° (NNE) 2,577 7.5 -7.1°
Maximum altitude 04:03:19 57° 101° (E) 1,054 4.5 -6.5°
Drops below altitude 10° 04:08:56 10° 179° (S) 2,563 5.8 -5.8°
Sets 04:11:23 0° 184° (S) 3,501 6.5 -5.5°
